Location: La Brionne
(46.1728°N, 1.7849°E)
Time: 20:06:04
(UTC+00:00)

USA 267 - Pass Details

Date: 01 November 2021
Orbit: 1101 x 1107 km, 123.0° (Epoch: 27 November)

Event Time Altitude Azimuth Distance (km) Brightness Sun altitude
Exits shadow 19:11:38 42° 154° (SSE) 1,524 3.7 -26.9°
Maximum altitude 19:13:56 68° 222° (SW) 1,179 3.4 -27.3°
Drops below altitude 10° 19:20:28 10° 305° (NW) 2,963 6.3 -28.5°
Sets 19:22:58 0° 308° (NW) 3,923 7.1 -28.9°
